EN

Hourly Weather La Huerta

Today, 25 July, Sunday

Time Temperature Precipitation Wind Pressure Humidity
00:00 +25°C° 0.1 mm 1 mps 725 mmHg 95%
01:00 +25°C° 0.1 mm 1 mps 725 mmHg 95%
02:00 +24°C° 0.1 mm 1 mps 725 mmHg 95%
03:00 +24°C° 0 mm 1 mps 725 mmHg 95%
04:00 +24°C° 0 mm 1 mps 725 mmHg 95%
05:00 +24°C° 0 mm 1 mps 725 mmHg 96%
06:00 +23°C° 0 mm 0 mps 725 mmHg 91%
07:00 +24°C° 0 mm 0 mps 725 mmHg 87%
08:00 +26°C° 0 mm 0 mps 725 mmHg 82%
09:00 +29°C° 0 mm 1 mps 725 mmHg 76%
10:00 +31°C° 0 mm 1 mps 725 mmHg 69%
11:00 +32°C° 0 mm 2 mps 725 mmHg 62%
12:00 +32°C° 0.3 mm 2 mps 725 mmHg 64%
13:00 +32°C° 0.3 mm 2 mps 724 mmHg 66%
14:00 +33°C° 0.3 mm 3 mps 723 mmHg 67%
15:00 +31°C° 0.7 mm 2 mps 723 mmHg 73%
16:00 +30°C° 0.7 mm 2 mps 723 mmHg 79%
17:00 +29°C° 0.7 mm 2 mps 722 mmHg 84%
18:00 +28°C° 2.1 mm 2 mps 723 mmHg 87%
19:00 +27°C° 2.1 mm 2 mps 723 mmHg 91%
20:00 +26°C° 2.1 mm 2 mps 723 mmHg 94%
21:00 +26°C° 0.7 mm 1 mps 723 mmHg 95%
22:00 +25°C° 0.7 mm 1 mps 724 mmHg 95%
23:00 +25°C° 0.7 mm 1 mps 724 mmHg 95%

Tomorrow, 26 July, Monday

Time Temperature Precipitation Wind Pressure Humidity
00:00 +25°C° 0 mm 1 mps 724 mmHg 95%
01:00 +25°C° 0 mm 1 mps 723 mmHg 95%
02:00 +25°C° 0 mm 1 mps 723 mmHg 95%
03:00 +24°C° 0.1 mm 1 mps 723 mmHg 95%
04:00 +24°C° 0.1 mm 1 mps 722 mmHg 95%
05:00 +24°C° 0.1 mm 1 mps 722 mmHg 95%
06:00 +25°C° 0 mm 1 mps 723 mmHg 91%
07:00 +26°C° 0 mm 1 mps 723 mmHg 88%
08:00 +25°C° 0 mm 0 mps 724 mmHg 84%
09:00 +29°C° 0.1 mm 1 mps 724 mmHg 79%
10:00 +30°C° 0.1 mm 1 mps 724 mmHg 74%
11:00 +31°C° 0.1 mm 2 mps 724 mmHg 69%
12:00 +30°C° 1.4 mm 2 mps 724 mmHg 74%
13:00 +30°C° 1.4 mm 2 mps 724 mmHg 79%
14:00 +29°C° 1.4 mm 2 mps 723 mmHg 85%
15:00 +28°C° 0.7 mm 1 mps 723 mmHg 87%
16:00 +28°C° 0.7 mm 1 mps 723 mmHg 89%
17:00 +25°C° 0.7 mm 0 mps 723 mmHg 92%
18:00 +25°C° 0.3 mm 0 mps 723 mmHg 93%
19:00 +24°C° 0.3 mm 0 mps 724 mmHg 94%
20:00 +23°C° 0.3 mm 0 mps 724 mmHg 96%
21:00 +23°C° 0.1 mm 0 mps 724 mmHg 96%
22:00 +23°C° 0.1 mm 0 mps 725 mmHg 96%
23:00 +25°C° 0.1 mm 1 mps 725 mmHg 96%

Day after tomorrow, 27 July, Tuesday

Time Temperature Precipitation Wind Pressure Humidity
00:00 +25°C° 0.4 mm 1 mps 724 mmHg 96%
01:00 +24°C° 0.4 mm 1 mps 724 mmHg 96%
02:00 +24°C° 0.4 mm 1 mps 724 mmHg 96%
03:00 +24°C° 0.4 mm 1 mps 724 mmHg 95%
04:00 +24°C° 0.4 mm 1 mps 724 mmHg 95%
05:00 +24°C° 0.4 mm 1 mps 724 mmHg 95%
06:00 +25°C° 0.1 mm 1 mps 724 mmHg 92%
07:00 +24°C° 0.1 mm 0 mps 725 mmHg 89%
08:00 +25°C° 0.1 mm 0 mps 725 mmHg 86%
09:00 +27°C° 0 mm 0 mps 725 mmHg 79%
10:00 +30°C° 0 mm 1 mps 725 mmHg 71%
11:00 +32°C° 0 mm 1 mps 725 mmHg 63%
12:00 +32°C° 0.5 mm 1 mps 724 mmHg 66%
13:00 +31°C° 0.5 mm 2 mps 724 mmHg 70%
14:00 +31°C° 0.5 mm 2 mps 724 mmHg 73%
15:00 +30°C° 1.2 mm 2 mps 723 mmHg 78%
16:00 +29°C° 1.2 mm 2 mps 723 mmHg 82%
17:00 +28°C° 1.2 mm 1 mps 723 mmHg 87%
18:00 +27°C° 0.6 mm 1 mps 724 mmHg 90%
19:00 +26°C° 0.6 mm 1 mps 724 mmHg 92%
20:00 +23°C° 0.6 mm 0 mps 724 mmHg 95%
21:00 +23°C° 0.4 mm 0 mps 724 mmHg 95%
22:00 +23°C° 0.4 mm 0 mps 725 mmHg 96%
23:00 +23°C° 0.4 mm 0 mps 725 mmHg 96%

28 July, Wednesday

Time Temperature Precipitation Wind Pressure Humidity
00:00 +23°C° 0 mm 0 mps 724 mmHg 96%
01:00 +25°C° 0 mm 1 mps 724 mmHg 96%
02:00 +24°C° 0 mm 1 mps 724 mmHg 96%
03:00 +24°C° 0.2 mm 1 mps 724 mmHg 96%
04:00 +24°C° 0.2 mm 1 mps 724 mmHg 96%
05:00 +24°C° 0.2 mm 1 mps 724 mmHg 95%
06:00 +23°C° 0 mm 0 mps 724 mmHg 91%
07:00 +24°C° 0 mm 0 mps 725 mmHg 87%
08:00 +26°C° 0 mm 0 mps 725 mmHg 83%
09:00 +27°C° 0 mm 0 mps 725 mmHg 77%
10:00 +31°C° 0 mm 1 mps 725 mmHg 70%
11:00 +32°C° 0 mm 1 mps 725 mmHg 63%
12:00 +32°C° 0.2 mm 2 mps 724 mmHg 66%
13:00 +31°C° 0.2 mm 2 mps 724 mmHg 69%
14:00 +31°C° 0.2 mm 2 mps 724 mmHg 72%
15:00 +30°C° 0.7 mm 2 mps 723 mmHg 77%
16:00 +30°C° 0.7 mm 2 mps 723 mmHg 82%
17:00 +29°C° 0.7 mm 1 mps 723 mmHg 86%
18:00 +28°C° 1.2 mm 1 mps 723 mmHg 89%
19:00 +27°C° 1.2 mm 1 mps 723 mmHg 92%
20:00 +26°C° 1.2 mm 1 mps 723 mmHg 95%
21:00 +25°C° 3.5 mm 1 mps 724 mmHg 95%
22:00 +25°C° 3.5 mm 1 mps 724 mmHg 96%
23:00 +24°C° 3.5 mm 2 mps 724 mmHg 96%

29 July, Thursday

Time Temperature Precipitation Wind Pressure Humidity
00:00 +24°C° 0.9 mm 1 mps 723 mmHg 95%
01:00 +24°C° 0.9 mm 1 mps 723 mmHg 94%
02:00 +23°C° 0.9 mm 1 mps 722 mmHg 93%
03:00 +23°C° 0 mm 1 mps 722 mmHg 92%
04:00 +23°C° 0 mm 1 mps 723 mmHg 91%
05:00 +23°C° 0 mm 1 mps 723 mmHg 90%
06:00 +24°C° 0 mm 1 mps 723 mmHg 86%
07:00 +25°C° 0 mm 1 mps 724 mmHg 81%
08:00 +27°C° 0 mm 1 mps 724 mmHg 77%
09:00 +28°C° 0 mm 1 mps 724 mmHg 70%
10:00 +30°C° 0 mm 1 mps 724 mmHg 62%
11:00 +32°C° 0 mm 1 mps 724 mmHg 55%
12:00 +32°C° 0 mm 1 mps 724 mmHg 56%
13:00 +32°C° 0 mm 2 mps 723 mmHg 56%
14:00 +34°C° 0 mm 2 mps 723 mmHg 57%
15:00 +32°C° 0 mm 2 mps 722 mmHg 63%
16:00 +31°C° 0 mm 2 mps 722 mmHg 69%
17:00 +30°C° 0 mm 2 mps 722 mmHg 75%
18:00 +29°C° 0.3 mm 2 mps 722 mmHg 82%
19:00 +27°C° 0.3 mm 1 mps 723 mmHg 89%
20:00 +26°C° 0.3 mm 1 mps 723 mmHg 96%
21:00 +26°C° 0.7 mm 1 mps 723 mmHg 96%
22:00 +26°C° 0.7 mm 1 mps 723 mmHg 96%
23:00 +25°C° 0.7 mm 1 mps 724 mmHg 96%

30 July, Friday

Time Temperature Precipitation Wind Pressure Humidity
00:00 +23°C° 0.4 mm 0 mps 723 mmHg 96%
01:00 +23°C° 0.4 mm 0 mps 723 mmHg 96%
02:00 +23°C° 0.4 mm 0 mps 723 mmHg 96%
03:00 +23°C° 0.5 mm 0 mps 723 mmHg 96%
04:00 +25°C° 0.5 mm 1 mps 723 mmHg 96%
05:00 +25°C° 0.5 mm 1 mps 723 mmHg 96%
06:00 +25°C° 0.5 mm 1 mps 723 mmHg 93%
07:00 +24°C° 0.5 mm 0 mps 724 mmHg 90%
08:00 +25°C° 0.5 mm 0 mps 724 mmHg 87%
09:00 +28°C° 0.1 mm 1 mps 724 mmHg 81%
10:00 +30°C° 0.1 mm 1 mps 724 mmHg 75%
11:00 +31°C° 0.1 mm 1 mps 724 mmHg 69%
12:00 +31°C° 0.3 mm 1 mps 723 mmHg 72%
13:00 +30°C° 0.3 mm 1 mps 723 mmHg 76%
14:00 +30°C° 0.3 mm 1 mps 722 mmHg 79%
15:00 +30°C° 0.3 mm 1 mps 723 mmHg 81%
16:00 +29°C° 0.3 mm 1 mps 723 mmHg 84%
17:00 +29°C° 0.3 mm 1 mps 723 mmHg 86%
18:00 +28°C° 0.3 mm 1 mps 723 mmHg 90%
19:00 +27°C° 0.3 mm 1 mps 723 mmHg 93%
20:00 +24°C° 0.3 mm 0 mps 723 mmHg 96%
21:00 +26°C° 1.7 mm 1 mps 724 mmHg 96%
22:00 +26°C° 1.7 mm 1 mps 724 mmHg 96%
23:00 +25°C° 1.7 mm 1 mps 724 mmHg 96%
Show more